Voltar ao catálogo

SL-3 DEB

AtivoPO
NORAD 35516·DEBRIS·🇷🇺 Russia

Lançado Dec 14, 1982 de Plesetsk Cosmodrome

Loading…

Próximas Passagens (próximas 24 horas)

TLE

AtualizadoSource: Space-Track

Época: Sep 14, 2026, 08:49 UTC

1 35516U 82116H   26257.36804551  .00000063  00000-0  24202-4 0  9995
2 35516  81.2512 257.6740 0066060 343.3562  82.6088 14.17614508672606

Acompanhe SL-3 DEB em tempo real com AllMySat

Download on the App Store